Location: Croydon
(51.3762°N, 0.0982°W)
Time: 19:31:16
(UTC+00:00)

Altair - Pass Details

Date: 18 November 2019
Orbit: 1502 x 1682 km, 47.2° (Epoch: 07 December)

Event Time Altitude Azimuth Distance (km) Brightness Sun altitude
Rises 06:28:19 0° 268° (W) 4,636 - -8.4°
Exits shadow 06:30:04 - 267° (W) 4,070 9.2 -8.2°
Reaches altitude 10° 06:31:20 10° 266° (W) 3,658 8.9 -8.0°
Maximum altitude 06:40:26 69° 185° (S) 1,615 7.7 -6.7°
Drops below altitude 10° 06:49:46 10° 105° (ESE) 3,748 11.3 -5.4°
Sets 06:52:53 0° 104° (ESE) 4,755 12.2 -4.9°
